Flag for U.S.A. Weather past 2 weeks in Owensboro, Kentucky, U.S.A.

Now
36 °F

Overcast.


Feels Like: 31 °F
Forecast: 26 / 40 °F
Wind: 6 mph from Northeast

Location: Owensboro / Daviess

Current Time: Dec 20, 2014 at 12:24:47 PM

Latest Report: Dec 20, 2014 at 11:56 AM


Visibility: 10 mi

Pressure: 30.31 "Hg

Humidity: 70%

Dew point: 27 °F

Location of OwensboroLocation

Historic Weather in Owensboro — Graph

°F

Owensboro temperature yesterday

Maximum temperature yesterday: 38 °F (at 1:56 PM)
Minimum temperature yesterday: 31 °F (at 4:56 AM)
Average temperature yesterday: 34 °F

Past Weeks' High & Low Weather Summary

 TemperatureHumidityPressure
High61 °F (Dec 5, 9:03 PM)100% (Dec 5, 12:56 PM)30.57 "Hg (Dec 5, 12:56 PM)
Low23 °F (Dec 12, 5:01 AM)56% (Dec 7, 1:56 PM)29.73 "Hg (Dec 15, 11:56 PM)
Average40 °F82%30.25 "Hg
* Reported Dec 5 10:56 AM — Dec 20 10:56 AM, Owensboro, Weather by CustomWeather, © 2014

Note: Actual official high and low records may vary slightly from our data, if they occured in-between our weather recording intervals... More about our weather records

Advertising

Owensboro weather history for previous 24 hours

 ConditionsComfort  
Time TempWeatherWind HumidityBarometerVisibility
10:56 AM
Dec 20
34 °FOvercast.7 mph73%30.33 "Hg10 mi
9:56 AM33 °FOvercast.6 mph76%30.33 "Hg10 mi
8:56 AM32 °FOvercast.3 mph79%30.32 "Hg10 mi
7:56 AM31 °FOvercast.7 mph79%30.31 "Hg10 mi
6:56 AM31 °FOvercast.7 mph79%30.30 "Hg7 mi
5:56 AM31 °FOvercast.3 mph79%30.30 "Hg7 mi
4:56 AM31 °FOvercast.3 mph79%30.28 "Hg10 mi
3:56 AM31 °FMostly cloudy.5 mph79%30.28 "Hg10 mi
2:56 AM32 °FOvercast.5 mph76%30.29 "Hg10 mi
1:56 AM32 °FPassing clouds.6 mph76%30.28 "Hg10 mi
1:03 AM32 °FLight snow. Partly cloudy.6 mph75%30.27 "Hg10 mi
12:56 AM32 °FLight snow. Partly cloudy.5 mph76%30.29 "Hg10 mi
11:56 PM
Dec 19
32 °FLight snow. Passing clouds.5 mph76%30.29 "Hg10 mi
10:56 PM33 °FPassing clouds.5 mph70%30.29 "Hg10 mi
9:56 PM33 °FClear.10 mph70%30.28 "Hg10 mi
8:56 PM33 °FClear.8 mph70%30.27 "Hg10 mi
7:56 PM33 °FClear.7 mph73%30.28 "Hg10 mi
6:56 PM33 °FClear.6 mph70%30.29 "Hg10 mi
5:56 PM34 °FClear.7 mph67%30.30 "Hg10 mi
4:56 PM35 °FClear.7 mph68%30.29 "Hg10 mi
3:56 PM38 °FClear.8 mph63%30.29 "Hg10 mi
2:56 PM38 °FSunny.6 mph63%30.30 "Hg10 mi
1:56 PM38 °FSunny.5 mph60%30.30 "Hg10 mi
12:56 PM37 °FSunny.6 mph65%30.27 "Hg10 mi
Weather by CustomWeather, © 2014

See weather overviewHow to use our weather pages